Find Marecs 2

NORAD ID: 15386 Int'l Des: 1984-114 Owner: ESA Country: I-ESA operational
HEO

リアルタイム位置

3D地球を読み込み中...

Marecs 2について

説明を読み込み中...

次回通過

Passes for default location (London). Set your location on the main map for personalized predictions.

高度履歴

Loading altitude history...

軌道要素

1 15386U 84114B 26104.49087354 -.00000141 00000-0 00000+0 0 9990
2 15386 13.5634 333.3354 0114256 52.6819 204.4130 0.95929276112064
Epoch: Apr 14, 2026 • Age: 15 hours

現在のステータス

高度 36776.2 km
速度 3.05 km/s
衛星直下点 12.72°N, 156.9°W
打ち上げ日 Nov 10, 1984
運用期間 41.4 years
タイプ other

技術仕様

分類 Payload
質量 580.00 kg
乾燥質量 470.00 kg
総質量 1050.00 kg
長さ 2.50 m
直径 2.00 m
スパン 13.80 m
形状 Box + 2 Pan
製造者 BAES
バスタイプ OTS
フェーズステータス In Orbit
所有者/国 ESA/I-ESA

Most Searched